| time (UTC) | temp F | wind direction | speed MPH | gust MPH | rain 1hr in | rain 24hr in | rain mn in | humidity % | barometer mb |
| 20260508151536 | 71 | 138 | 2.0 | 4.0 | 0.00 | 0.00 | 0.00 | 59 | 1014.7 |
| 20260508150606 | 72 | 166 | 1.0 | 3.0 | 0.00 | 0.00 | 0.00 | 58 | 1014.8 |
| 20260508145601 | 73 | 157 | 2.0 | 4.0 | 0.00 | 0.00 | 0.00 | 55 | 1014.7 |
| 20260508144517 | 74 | 132 | 1.0 | 4.0 | 0.00 | 0.00 | 0.00 | 55 | 1014.7 |
| 20260508143547 | 74 | 119 | 2.0 | 3.0 | 0.00 | 0.00 | 0.00 | 53 | 1014.7 |
| 20260508142522 | 75 | 104 | 2.0 | 3.0 | 0.00 | 0.00 | 0.00 | 52 | 1014.8 |
| 20260508141538 | 78 | 86 | 1.0 | 3.0 | 0.00 | 0.00 | 0.00 | 48 | 1014.7 |
| 20260508140528 | 85 | 136 | 2.0 | 4.0 | 0.00 | 0.00 | 0.00 | 40 | 1014.8 |
| 20260508135524 | 84 | 113 | 3.0 | 7.0 | 0.00 | 0.00 | 0.00 | 41 | 1014.8 |
| 20260508134519 | 82 | 103 | 4.0 | 7.0 | 0.00 | 0.00 | 0.00 | 44 | 1014.8 |
| 20260508133529 | 79 | 129 | 3.0 | 8.0 | 0.00 | 0.00 | 0.00 | 47 | 1014.8 |
| 20260508132525 | 75 | 114 | 3.0 | 7.0 | 0.00 | 0.00 | 0.00 | 54 | 1014.8 |
| 20260508131520 | 68 | 128 | 1.0 | 3.0 | 0.00 | 0.00 | 0.00 | 72 | 1014.9 |
| 20260508130516 | 63 | 290 | 0.0 | 1.0 | 0.00 | 0.00 | 0.00 | 81 | 1015.1 |
| 20260508125546 | 62 | 290 | 0.0 | 1.0 | 0.00 | 0.00 | 0.00 | 80 | 1015.2 |
| 20260508124521 | 61 | 290 | 0.0 | 1.0 | 0.00 | 0.00 | 0.00 | 82 | 1015.3 |
| 20260508123517 | 60 | 290 | 0.0 | 1.0 | 0.00 | 0.00 | 0.00 | 83 | 1015.0 |
| 20260508122527 | 59 | 290 | 0.0 | 1.0 | 0.00 | 0.00 | 0.00 | 84 | 1014.9 |
| 20260508121542 | 59 | 290 | 0.0 | 1.0 | 0.00 | 0.00 | 0.00 | 84 | 1014.9 |
| 20260508120518 | 58 | 0.0 | 0.0 | 0.00 | 0.00 | 0.00 | 86 | 1014.7 | |
| 20260508115529 | 58 | 0.0 | 0.0 | 0.00 | 0.00 | 0.00 | 86 | 1014.7 | |
| 20260508114523 | 58 | 290 | 0.0 | 1.0 | 0.00 | 0.00 | 0.00 | 84 | 1014.9 |
| 20260508113518 | 58 | 0.0 | 0.0 | 0.00 | 0.00 | 0.00 | 84 | 1015.0 | |
| 20260508112529 | 58 | 290 | 0.0 | 1.0 | 0.00 | 0.00 | 0.00 | 83 | 1015.0 |
| 20260508111524 | 59 | 237 | 1.0 | 2.0 | 0.00 | 0.00 | 0.00 | 83 | 1015.0 |
| 20260508110520 | 59 | 169 | 1.0 | 2.0 | 0.00 | 0.00 | 0.00 | 83 | 1014.8 |
| 20260508105535 | 59 | 174 | 1.0 | 4.0 | 0.00 | 0.00 | 0.00 | 84 | 1014.8 |
| 20260508104526 | 59 | 245 | 0.0 | 3.0 | 0.00 | 0.00 | 0.00 | 84 | 1014.8 |
| 20260508103521 | 59 | 156 | 2.0 | 3.0 | 0.00 | 0.00 | 0.00 | 85 | 1014.4 |
| 20260508102516 | 59 | 173 | 2.0 | 7.0 | 0.00 | 0.00 | 0.00 | 85 | 1014.5 |
| 20260508101527 | 58 | 153 | 1.0 | 2.0 | 0.00 | 0.00 | 0.00 | 86 | 1014.4 |
| 20260508100542 | 58 | 84 | 0.0 | 1.0 | 0.00 | 0.00 | 0.00 | 85 | 1014.3 |
| 20260508095517 | 58 | 84 | 0.0 | 2.0 | 0.00 | 0.00 | 0.00 | 84 | 1014.3 |
| 20260508094528 | 59 | 123 | 0.0 | 2.0 | 0.00 | 0.00 | 0.00 | 84 | 1014.3 |
| 20260508093523 | 59 | 140 | 1.0 | 2.0 | 0.00 | 0.00 | 0.00 | 84 | 1014.3 |
| 20260508092519 | 59 | 160 | 1.0 | 3.0 | 0.00 | 0.00 | 0.00 | 85 | 1014.4 |
| 20260508091530 | 59 | 128 | 0.0 | 1.0 | 0.00 | 0.00 | 0.00 | 84 | 1014.4 |
| 20260508090525 | 59 | 0.0 | 0.0 | 0.00 | 0.00 | 0.00 | 83 | 1014.8 | |
| 20260508085520 | 60 | 127 | 0.0 | 1.0 | 0.00 | 0.00 | 0.00 | 84 | 1014.5 |
| 20260508084543 | 60 | 145 | 1.0 | 3.0 | 0.00 | 0.00 | 0.00 | 84 | 1014.4 |
| 20260508083519 | 60 | 124 | 3.0 | 4.0 | 0.00 | 0.00 | 0.00 | 83 | 1014.4 |
| 20260508082529 | 61 | 109 | 1.0 | 2.0 | 0.00 | 0.00 | 0.00 | 80 | 1014.9 |
| 20260508081528 | 61 | 125 | 1.0 | 2.0 | 0.00 | 0.00 | 0.00 | 80 | 1015.0 |
| 20260508080527 | 61 | 218 | 0.0 | 1.0 | 0.00 | 0.00 | 0.00 | 80 | 1015.4 |
| 20260508075526 | 61 | 0.0 | 0.0 | 0.00 | 0.00 | 0.00 | 79 | 1015.6 | |
| 20260508074521 | 61 | 0.0 | 0.0 | 0.00 | 0.00 | 0.00 | 80 | 1015.8 | |
| 20260508073520 | 61 | 260 | 0.0 | 1.0 | 0.00 | 0.00 | 0.00 | 81 | 1015.8 |
| 20260508072531 | 61 | 258 | 1.0 | 2.0 | 0.00 | 0.00 | 0.00 | 80 | 1015.5 |
| 20260508071524 | 61 | 256 | 0.0 | 1.0 | 0.00 | 0.00 | 0.00 | 78 | 1015.4 |
| 20260508070538 | 61 | 0.0 | 0.0 | 0.00 | 0.00 | 0.00 | 77 | 1015.3 | |
| 20260508065527 | 61 | 165 | 0.0 | 1.0 | 0.00 | 0.00 | 0.00 | 79 | 1015.3 |
| 20260508064031 | 62 | 165 | 0.0 | 1.0 | 0.00 | 0.00 | 0.00 | 77 | 1015.6 |
| 20260508063026 | 62 | 165 | 0.0 | 1.0 | 0.00 | 0.00 | 0.00 | 77 | 1015.7 |
| 20260508062041 | 62 | 165 | 0.0 | 1.0 | 0.00 | 0.00 | 0.00 | 77 | 1015.8 |
| 20260508061024 | 61 | 0.0 | 0.0 | 0.00 | 0.00 | 0.00 | 78 | 1016.0 | |
| 20260508060030 | 61 | 166 | 0.0 | 1.0 | 0.00 | 0.00 | 0.00 | 79 | 1016.1 |
| 20260508055022 | 61 | 137 | 0.0 | 1.0 | 0.00 | 0.00 | 0.00 | 77 | 1016.0 |
| 20260508054056 | 61 | 0.0 | 0.0 | 0.00 | 0.00 | 0.00 | 75 | 1016.0 | |
| 20260508053053 | 61 | 0.0 | 0.0 | 0.00 | 0.00 | 0.00 | 76 | 1016.2 | |
| 20260508052030 | 62 | 0.0 | 0.0 | 0.00 | 0.00 | 0.00 | 74 | 1016.0 | |
| 20260508051024 | 62 | 0.0 | 0.0 | 0.00 | 0.00 | 0.00 | 73 | 1016.2 | |
| 20260508050032 | 62 | 133 | 0.0 | 1.0 | 0.00 | 0.00 | 0.00 | 73 | 1015.9 |
| 20260508045025 | 62 | 133 | 1.0 | 2.0 | 0.00 | 0.00 | 0.00 | 73 | 1016.0 |
| 20260508044033 | 62 | 0.0 | 0.0 | 0.00 | 0.00 | 0.00 | 71 | 1016.2 | |
| 20260508043032 | 63 | 0.0 | 0.0 | 0.00 | 0.00 | 0.00 | 70 | 1016.1 | |
| 20260508042028 | 63 | 0.0 | 0.0 | 0.00 | 0.00 | 0.00 | 69 | 1016.0 | |
| 20260508041046 | 63 | 133 | 0.0 | 1.0 | 0.00 | 0.00 | 0.00 | 69 | 1016.1 |
| 20260508040023 | 64 | 133 | 0.0 | 1.0 | 0.00 | 0.00 | 0.00 | 67 | 1015.9 |
| 20260508035040 | 64 | 110 | 1.0 | 3.0 | 0.00 | 0.00 | 0.00 | 68 | 1015.9 |
| 20260508034017 | 64 | 0.0 | 0.0 | 0.00 | 0.00 | 0.00 | 67 | 1016.0 | |
| 20260508033051 | 64 | 0.0 | 0.0 | 0.00 | 0.00 | 0.00 | 66 | 1015.7 | |
| 20260508032029 | 64 | 94 | 0.0 | 1.0 | 0.00 | 0.00 | 0.00 | 68 | 1015.4 |
| 20260508031027 | 64 | 122 | 1.0 | 3.0 | 0.00 | 0.00 | 0.00 | 65 | 1015.1 |
| 20260508030040 | 64 | 0.0 | 0.0 | 0.00 | 0.00 | 0.00 | 63 | 1015.3 | |
| 20260508025030 | 65 | 159 | 0.0 | 1.0 | 0.00 | 0.00 | 0.00 | 62 | 1015.2 |
| 20260508024025 | 65 | 159 | 0.0 | 2.0 | 0.00 | 0.00 | 0.00 | 61 | 1015.1 |
| 20260508023021 | 65 | 159 | 0.0 | 2.0 | 0.00 | 0.00 | 0.00 | 60 | 1015.2 |
| 20260508022016 | 66 | 159 | 1.0 | 2.0 | 0.00 | 0.00 | 0.00 | 59 | 1015.2 |
| 20260508021027 | 66 | 159 | 0.0 | 1.0 | 0.00 | 0.00 | 0.00 | 58 | 1015.4 |
| 20260508020022 | 66 | 159 | 0.0 | 1.0 | 0.00 | 0.00 | 0.00 | 57 | 1015.2 |
| 20260508015018 | 66 | 0.0 | 0.0 | 0.00 | 0.00 | 0.00 | 56 | 1015.1 | |
| 20260508014028 | 67 | 0.0 | 0.0 | 0.00 | 0.00 | 0.00 | 56 | 1015.2 | |
| 20260508013024 | 67 | 159 | 0.0 | 1.0 | 0.00 | 0.00 | 0.00 | 55 | 1015.1 |
| 20260508012039 | 67 | 159 | 0.0 | 1.0 | 0.00 | 0.00 | 0.00 | 55 | 1015.1 |
| 20260508011030 | 68 | 159 | 0.0 | 1.0 | 0.00 | 0.00 | 0.00 | 54 | 1015.1 |
| 20260508010045 | 68 | 158 | 0.0 | 1.0 | 0.00 | 0.00 | 0.00 | 53 | 1015.1 |
| 20260508005021 | 69 | 158 | 1.0 | 2.0 | 0.00 | 0.00 | 0.00 | 53 | 1015.3 |
| 20260508004017 | 69 | 148 | 0.0 | 3.0 | 0.00 | 0.00 | 0.00 | 53 | 1015.2 |
| 20260508003047 | 69 | 141 | 0.0 | 2.0 | 0.00 | 0.00 | 0.00 | 52 | 1015.2 |
| 20260508002022 | 70 | 141 | 1.0 | 3.0 | 0.00 | 0.00 | 0.00 | 51 | 1015.2 |
| 20260508001018 | 70 | 139 | 1.0 | 3.0 | 0.00 | 0.00 | 0.00 | 50 | 1015.5 |
| 20260508000029 | 70 | 148 | 2.0 | 6.0 | 0.00 | 0.00 | 0.00 | 49 | 1015.6 |
| 20260507235024 | 71 | 132 | 1.0 | 3.0 | 0.00 | 0.00 | 0.00 | 48 | 1015.4 |
| 20260507234020 | 72 | 138 | 1.0 | 3.0 | 0.00 | 0.00 | 0.00 | 48 | 1015.4 |
| 20260507233015 | 72 | 143 | 2.0 | 4.0 | 0.00 | 0.00 | 0.00 | 47 | 1015.3 |
| 20260507232026 | 72 | 130 | 2.0 | 4.0 | 0.00 | 0.01 | 0.00 | 47 | 1015.5 |
| 20260507231021 | 72 | 140 | 2.0 | 6.0 | 0.00 | 0.11 | 0.00 | 46 | 1015.6 |
| 20260507230017 | 73 | 141 | 3.0 | 6.0 | 0.00 | 0.11 | 0.00 | 46 | 1015.7 |
| 20260507225027 | 73 | 125 | 2.0 | 4.0 | 0.00 | 0.11 | 0.00 | 45 | 1015.6 |
| 20260507224023 | 73 | 134 | 2.0 | 6.0 | 0.00 | 0.11 | 0.00 | 45 | 1015.7 |
| 20260507223018 | 74 | 134 | 2.0 | 4.0 | 0.00 | 0.11 | 0.00 | 44 | 1015.8 |
| 20260507222029 | 74 | 133 | 2.0 | 6.0 | 0.00 | 0.11 | 0.00 | 44 | 1016.1 |
| 20260507221024 | 75 | 116 | 2.0 | 4.0 | 0.00 | 0.11 | 0.00 | 44 | 1015.9 |
| 20260507220040 | 75 | 142 | 2.0 | 4.0 | 0.00 | 0.11 | 0.00 | 42 | 1015.8 |
| 20260507215016 | 76 | 138 | 3.0 | 7.0 | 0.00 | 0.11 | 0.00 | 42 | 1015.8 |
| 20260507214046 | 76 | 131 | 2.0 | 8.0 | 0.00 | 0.11 | 0.00 | 42 | 1016.0 |
| 20260507213022 | 76 | 124 | 3.0 | 7.0 | 0.00 | 0.11 | 0.00 | 42 | 1016.1 |
| 20260507212017 | 77 | 136 | 2.0 | 4.0 | 0.00 | 0.11 | 0.00 | 41 | 1016.4 |
| 20260507211108 | 77 | 140 | 2.0 | 7.0 | 0.00 | 0.11 | 0.00 | 41 | 1016.7 |
| 20260507210043 | 78 | 147 | 2.0 | 7.0 | 0.00 | 0.11 | 0.00 | 39 | 1016.8 |
| 20260507205059 | 79 | 142 | 2.0 | 4.0 | 0.00 | 0.11 | 0.00 | 37 | 1016.6 |
| 20260507204029 | 80 | 112 | 1.0 | 3.0 | 0.00 | 0.11 | 0.00 | 34 | 1016.7 |
| 20260507203025 | 81 | 93 | 2.0 | 4.0 | 0.00 | 0.11 | 0.00 | 33 | 1016.6 |
| 20260507202020 | 81 | 87 | 3.0 | 6.0 | 0.00 | 0.11 | 0.00 | 33 | 1016.3 |
| 20260507201016 | 81 | 60 | 4.0 | 8.0 | 0.00 | 0.11 | 0.00 | 33 | 1016.5 |
| 20260507200026 | 81 | 91 | 2.0 | 4.0 | 0.00 | 0.11 | 0.00 | 34 | 1016.8 |
| 20260507195021 | 81 | 60 | 2.0 | 7.0 | 0.00 | 0.11 | 0.00 | 33 | 1016.9 |
| 20260507194017 | 81 | 74 | 3.0 | 6.0 | 0.00 | 0.11 | 0.00 | 34 | 1017.0 |
| 20260507193027 | 82 | 281 | 2.0 | 3.0 | 0.00 | 0.11 | 0.00 | 33 | 1017.3 |
| 20260507192022 | 81 | 80 | 4.0 | 8.0 | 0.00 | 0.11 | 0.00 | 34 | 1017.7 |
| 20260507191018 | 81 | 62 | 3.0 | 6.0 | 0.00 | 0.11 | 0.00 | 34 | 1017.9 |
| 20260507190028 | 80 | 90 | 2.0 | 6.0 | 0.00 | 0.11 | 0.00 | 36 | 1018.1 |
| 20260507185024 | 81 | 80 | 4.0 | 8.0 | 0.00 | 0.11 | 0.00 | 36 | 1018.0 |
| 20260507184040 | 79 | 82 | 3.0 | 7.0 | 0.00 | 0.11 | 0.00 | 38 | 1017.9 |
| 20260507183030 | 78 | 64 | 4.0 | 8.0 | 0.00 | 0.11 | 0.00 | 38 | 1017.8 |
| 20260507182025 | 78 | 78 | 5.0 | 10.0 | 0.00 | 0.11 | 0.00 | 39 | 1017.7 |
| 20260507181020 | 77 | 76 | 3.0 | 9.0 | 0.00 | 0.11 | 0.00 | 39 | 1018.1 |
| 20260507180015 | 77 | 57 | 4.0 | 7.0 | 0.00 | 0.11 | 0.00 | 39 | 1018.0 |
| 20260507175026 | 77 | 58 | 4.0 | 10.0 | 0.00 | 0.11 | 0.00 | 39 | 1018.1 |
| 20260507174022 | 76 | 71 | 3.0 | 8.0 | 0.00 | 0.11 | 0.00 | 42 | 1018.3 |
| 20260507173017 | 77 | 60 | 5.0 | 10.0 | 0.00 | 0.11 | 0.00 | 40 | 1018.4 |
| 20260507172027 | 77 | 69 | 4.0 | 10.0 | 0.00 | 0.11 | 0.00 | 39 | 1018.7 |
| 20260507171023 | 77 | 31 | 2.0 | 7.0 | 0.00 | 0.11 | 0.00 | 41 | 1018.8 |
| 20260507170018 | 77 | 23 | 3.0 | 8.0 | 0.00 | 0.11 | 0.00 | 41 | 1019.2 |
| 20260507165029 | 78 | 359 | 3.0 | 9.0 | 0.00 | 0.11 | 0.00 | 40 | 1019.6 |
| 20260507164024 | 77 | 356 | 3.0 | 7.0 | 0.00 | 0.11 | 0.00 | 42 | 1019.6 |
| 20260507163020 | 76 | 100 | 3.0 | 7.0 | 0.00 | 0.11 | 0.00 | 43 | 1019.8 |
| 20260507162015 | 77 | 79 | 4.0 | 8.0 | 0.00 | 0.11 | 0.00 | 43 | 1019.8 |
| 20260507161026 | 76 | 74 | 4.0 | 9.0 | 0.00 | 0.11 | 0.00 | 44 | 1019.9 |
| 20260507160021 | 74 | 46 | 3.0 | 8.0 | 0.00 | 0.11 | 0.00 | 46 | 1019.8 |
| 20260507155017 | 74 | 86 | 3.0 | 7.0 | 0.00 | 0.11 | 0.00 | 47 | 1019.6 |
| 20260507154027 | 75 | 74 | 5.0 | 11.0 | 0.00 | 0.11 | 0.00 | 45 | 1019.6 |
| 20260507153022 | 73 | 69 | 4.0 | 8.0 | 0.00 | 0.11 | 0.00 | 49 | 1019.9 |
| 20260507152017 | 73 | 68 | 4.0 | 7.0 | 0.00 | 0.11 | 0.00 | 49 | 1020.0 |